Location: Unspecified
(0.0000°N, 0.0000°E)
Time: 01:43:02
(UTC+00:00)

Vanguard 1 - Pass Details

Date: 26 November 2019
Orbit: 652 x 3832 km, 34.3° (Epoch: 10 December)

Event Time Altitude Azimuth Distance (km) Brightness Sun altitude
Rises 17:18:20 0° 293° (WNW) 2,971 13.3 6.8°
Reaches altitude 10° 17:20:27 10° 286° (WNW) 2,133 12.8 6.3°
Maximum altitude 17:24:58 46° 212° (SSW) 1,099 11.0 5.2°
Drops below altitude 10° 17:31:38 10° 140° (SE) 3,128 12.5 3.7°
Sets 17:35:26 0° 134° (SE) 4,558 13.2 2.8°
